Location: *
(41.7492°S, 135.4150°W)
Time: 22:31:47
(UTC+00:00)

METEOR M2 - Pass Details

Date: 06 July 2022
Orbit: 818 x 827 km, 98.4° (Epoch: 17 August)

Event Time Altitude Azimuth Distance (km) Brightness Sun altitude
Rises 14:08:10 0° 45° (NE) 3,351 ? -25.5°
Reaches altitude 10° 14:10:45 10° 55° (NE) 2,426 ? -25.0°
Maximum altitude 14:15:21 30° 114° (ESE) 1,454 ? -24.1°
Drops below altitude 10° 14:19:59 10° 173° (S) 2,448 ? -23.3°
Sets 14:22:36 0° 183° (S) 3,388 ? -22.8°
